Time,TemperatureF,DewpointF,PressureIn,WindDirection,WindDirectionDegrees,WindSpeedMPH,WindSpeedGustMPH,Humidity,HourlyPrecipIn,Conditions,Clouds,dailyrainin,SolarRadiationWatts/m^2,SoftwareType,DateUTC
2013-02-05 00:01:00,37.0,24.4,29.95,SSW,193,0.0,13.0,60,0.00,,,0.00,0.0,meteohub,2013-02-05 05:01:00,
2013-02-05 00:07:00,37.2,23.7,29.95,SE,134,5.0,13.0,58,0.00,,,0.00,0.0,meteohub,2013-02-05 05:07:00,
2013-02-05 00:13:00,37.2,23.7,29.94,SSE,165,9.0,13.0,58,0.00,,,0.00,0.0,meteohub,2013-02-05 05:13:00,
2013-02-05 00:17:00,37.4,23.9,29.94,SSE,159,2.0,13.0,58,0.00,,,0.00,0.0,meteohub,2013-02-05 05:17:00,
2013-02-05 00:22:00,37.4,23.9,29.94,South,188,1.0,11.0,58,0.00,,,0.00,0.0,meteohub,2013-02-05 05:22:00,
2013-02-05 00:27:00,37.4,23.9,29.94,SW,226,2.0,11.0,58,0.00,,,0.00,0.0,meteohub,2013-02-05 05:27:00,
2013-02-05 00:32:00,37.6,23.7,29.94,SSW,198,2.0,11.0,57,0.00,,,0.00,0.0,meteohub,2013-02-05 05:32:00,
2013-02-05 00:37:00,37.6,23.7,29.94,SSE,153,5.0,11.0,57,0.00,,,0.00,0.0,meteohub,2013-02-05 05:37:00,
2013-02-05 00:42:00,37.6,23.7,29.94,SSE,166,4.0,11.0,57,0.00,,,0.00,0.0,meteohub,2013-02-05 05:42:00,
2013-02-05 00:47:00,37.6,24.1,29.94,North,355,2.0,10.0,58,0.00,,,0.00,0.0,meteohub,2013-02-05 05:47:00,
2013-02-05 00:52:00,37.6,24.1,29.93,SE,143,8.0,11.0,58,0.00,,,0.00,0.0,meteohub,2013-02-05 05:52:00,
2013-02-05 00:57:00,37.6,23.7,29.93,SSE,161,5.0,11.0,57,0.00,,,0.00,0.0,meteohub,2013-02-05 05:57:00,
2013-02-05 01:02:00,37.8,23.9,29.93,South,169,5.0,12.0,57,0.00,,,0.00,0.0,meteohub,2013-02-05 06:02:00,
2013-02-05 01:07:00,37.8,23.9,29.93,South,177,7.0,12.0,57,0.00,,,0.00,0.0,meteohub,2013-02-05 06:07:00,
2013-02-05 01:12:00,37.6,23.7,29.93,South,178,6.0,11.0,57,0.00,,,0.00,0.0,meteohub,2013-02-05 06:12:00,
2013-02-05 01:17:00,37.6,24.1,29.93,South,187,1.0,10.0,58,0.00,,,0.00,0.0,meteohub,2013-02-05 06:17:00,
2013-02-05 01:22:00,37.6,23.7,29.93,SSE,156,7.0,10.0,57,0.00,,,0.00,0.0,meteohub,2013-02-05 06:22:00,
2013-02-05 01:27:00,37.6,23.7,29.92,NW,325,1.0,11.0,57,0.00,,,0.00,0.0,meteohub,2013-02-05 06:27:00,
2013-02-05 01:32:00,37.6,23.7,29.92,SSE,159,2.0,11.0,57,0.00,,,0.00,0.0,meteohub,2013-02-05 06:32:00,
2013-02-05 01:37:00,37.6,23.7,29.92,South,179,1.0,11.0,57,0.00,,,0.00,0.0,meteohub,2013-02-05 06:37:00,
2013-02-05 01:42:00,37.2,23.7,29.92,SE,140,9.0,11.0,58,0.00,,,0.00,0.0,meteohub,2013-02-05 06:42:00,
2013-02-05 01:47:00,37.2,23.7,29.92,WSW,257,1.0,11.0,58,0.00,,,0.00,0.0,meteohub,2013-02-05 06:47:00,
2013-02-05 01:52:00,37.0,23.7,29.91,SW,215,7.0,10.0,58,0.00,,,0.00,0.0,meteohub,2013-02-05 06:52:00,
2013-02-05 01:57:00,37.0,23.7,29.91,SSE,150,5.0,12.0,58,0.00,,,0.00,0.0,meteohub,2013-02-05 06:57:00,
2013-02-05 02:02:00,37.0,23.7,29.92,South,178,4.0,12.0,58,0.00,,,0.00,0.0,meteohub,2013-02-05 07:02:00,
2013-02-05 02:07:00,37.0,23.7,29.91,South,186,1.0,12.0,58,0.00,,,0.00,0.0,meteohub,2013-02-05 07:07:00,
2013-02-05 02:12:00,37.0,23.7,29.91,SSE,158,2.0,10.0,58,0.00,,,0.00,0.0,meteohub,2013-02-05 07:12:00,
2013-02-05 02:17:00,37.0,24.1,29.91,SSE,160,6.0,10.0,59,0.00,,,0.00,0.0,meteohub,2013-02-05 07:17:00,
2013-02-05 02:22:00,37.2,23.7,29.91,SE,136,6.0,11.0,58,0.00,,,0.00,0.0,meteohub,2013-02-05 07:22:00,
2013-02-05 02:27:00,37.2,24.3,29.91,SSW,211,1.0,12.0,59,0.00,,,0.00,0.0,meteohub,2013-02-05 07:27:00,
2013-02-05 02:32:00,37.2,24.3,29.91,South,173,4.0,12.0,59,0.00,,,0.00,0.0,meteohub,2013-02-05 07:32:00,
2013-02-05 02:37:00,37.2,24.3,29.90,ESE,116,1.0,9.0,59,0.00,,,0.00,0.0,meteohub,2013-02-05 07:37:00,
2013-02-05 02:42:00,37.2,24.6,29.90,South,173,4.0,10.0,60,0.00,,,0.00,0.0,meteohub,2013-02-05 07:42:00,
2013-02-05 02:47:00,37.2,24.6,29.90,South,171,4.0,10.0,60,0.00,,,0.00,0.0,meteohub,2013-02-05 07:47:00,
2013-02-05 02:52:00,37.2,24.6,29.90,South,186,4.0,10.0,60,0.00,,,0.00,0.0,meteohub,2013-02-05 07:52:00,
2013-02-05 02:57:00,37.4,24.8,29.90,SSE,150,4.0,9.0,60,0.00,,,0.00,0.0,meteohub,2013-02-05 07:57:00,
2013-02-05 03:02:00,37.6,25.0,29.90,SSE,150,2.0,11.0,60,0.00,,,0.00,0.0,meteohub,2013-02-05 08:02:00,
2013-02-05 03:07:00,37.6,25.0,29.90,NNW,329,3.0,11.0,60,0.00,,,0.00,0.0,meteohub,2013-02-05 08:07:00,
2013-02-05 03:12:00,37.6,25.0,29.89,SSE,165,4.0,11.0,60,0.00,,,0.00,0.0,meteohub,2013-02-05 08:12:00,
2013-02-05 03:17:00,37.8,25.2,29.90,SSE,149,6.0,8.0,60,0.00,,,0.00,0.0,meteohub,2013-02-05 08:17:00,
2013-02-05 03:22:00,37.8,25.2,29.89,SSW,209,3.0,15.0,60,0.00,,,0.00,0.0,meteohub,2013-02-05 08:22:00,
2013-02-05 03:27:00,37.6,25.0,29.90,WSW,241,1.0,24.0,60,0.00,,,0.00,0.0,meteohub,2013-02-05 08:27:00,
2013-02-05 03:32:00,37.6,25.0,29.90,SSW,196,6.0,24.0,60,0.00,,,0.00,0.0,meteohub,2013-02-05 08:32:00,
2013-02-05 03:37:00,37.6,25.0,29.90,North,355,0.0,12.0,60,0.00,,,0.00,0.0,meteohub,2013-02-05 08:37:00,
2013-02-05 03:42:00,37.6,25.0,29.89,ENE,75,0.0,12.0,60,0.00,,,0.00,0.0,meteohub,2013-02-05 08:42:00,
2013-02-05 03:47:00,37.6,25.0,29.89,South,185,5.0,11.0,60,0.00,,,0.00,0.0,meteohub,2013-02-05 08:47:00,
2013-02-05 03:52:00,37.4,24.8,29.89,SSE,159,2.0,19.0,60,0.00,,,0.00,0.0,meteohub,2013-02-05 08:52:00,
2013-02-05 03:57:00,37.4,25.2,29.89,SSE,155,6.0,19.0,61,0.00,,,0.00,0.0,meteohub,2013-02-05 08:57:00,
2013-02-05 04:02:00,37.4,25.2,29.89,ENE,67,0.0,9.0,61,0.00,,,0.00,0.0,meteohub,2013-02-05 09:02:00,
2013-02-05 04:07:00,37.4,25.2,29.88,SW,218,0.0,9.0,61,0.00,,,0.00,0.0,meteohub,2013-02-05 09:07:00,
2013-02-05 04:12:00,37.2,25.0,29.88,East,94,0.0,16.0,61,0.00,,,0.00,0.0,meteohub,2013-02-05 09:12:00,
2013-02-05 04:17:00,37.2,25.0,29.88,ESE,111,4.0,16.0,61,0.00,,,0.00,0.0,meteohub,2013-02-05 09:17:00,
2013-02-05 04:22:00,37.2,25.3,29.88,SSW,194,0.0,16.0,62,0.00,,,0.00,0.0,meteohub,2013-02-05 09:22:00,
2013-02-05 04:27:00,37.4,25.2,29.88,NNE,30,0.0,7.0,61,0.00,,,0.00,0.0,meteohub,2013-02-05 09:27:00,
2013-02-05 04:32:00,37.4,25.5,29.88,South,171,4.0,7.0,62,0.00,,,0.00,0.0,meteohub,2013-02-05 09:32:00,
2013-02-05 04:37:00,37.4,25.5,29.88,SSE,155,2.0,6.0,62,0.00,,,0.00,0.0,meteohub,2013-02-05 09:37:00,
2013-02-05 04:42:00,37.4,25.2,29.88,NNE,28,0.0,9.0,61,0.00,,,0.00,0.0,meteohub,2013-02-05 09:42:00,
2013-02-05 04:47:00,37.6,25.0,29.88,East,80,0.0,9.0,60,0.00,,,0.00,0.0,meteohub,2013-02-05 09:47:00,
2013-02-05 04:52:00,37.8,24.8,29.89,NW,317,0.0,9.0,59,0.00,,,0.00,0.0,meteohub,2013-02-05 09:52:00,
2013-02-05 04:57:00,38.1,24.3,29.88,ENE,67,0.0,8.0,57,0.00,,,0.00,0.0,meteohub,2013-02-05 09:57:00,
2013-02-05 05:02:00,38.5,23.7,29.88,North,355,3.0,13.0,55,0.00,,,0.00,0.0,meteohub,2013-02-05 10:02:00,
2013-02-05 05:07:00,39.0,23.4,29.88,NNE,29,0.0,13.0,53,0.00,,,0.00,0.0,meteohub,2013-02-05 10:07:00,
2013-02-05 05:12:00,39.6,23.0,29.88,NE,56,0.0,13.0,51,0.00,,,0.00,0.0,meteohub,2013-02-05 10:12:00,
2013-02-05 05:17:00,40.3,22.1,29.88,NE,44,1.0,9.0,48,0.00,,,0.00,0.0,meteohub,2013-02-05 10:17:00,
2013-02-05 05:22:00,40.6,22.5,29.88,ENE,65,0.0,9.0,48,0.00,,,0.00,0.0,meteohub,2013-02-05 10:22:00,
2013-02-05 05:27:00,41.2,21.9,29.88,SSE,149,0.0,5.0,46,0.00,,,0.00,0.0,meteohub,2013-02-05 10:27:00,
2013-02-05 05:32:00,41.7,22.5,29.89,NNW,328,0.0,5.0,46,0.00,,,0.00,0.0,meteohub,2013-02-05 10:32:00,
2013-02-05 05:37:00,42.1,22.8,29.89,NE,39,4.0,6.0,46,0.00,,,0.00,0.0,meteohub,2013-02-05 10:37:00,
2013-02-05 05:42:00,42.6,22.8,29.89,East,96,0.0,11.0,45,0.00,,,0.00,0.0,meteohub,2013-02-05 10:42:00,
2013-02-05 05:47:00,43.0,23.5,29.89,WSW,240,0.0,11.0,46,0.00,,,0.00,0.0,meteohub,2013-02-05 10:47:00,
2013-02-05 05:52:00,42.8,23.0,29.89,SSW,197,0.0,11.0,45,0.00,,,0.00,0.0,meteohub,2013-02-05 10:52:00,
2013-02-05 05:57:00,43.0,23.2,29.89,SW,225,3.0,5.0,45,0.00,,,0.00,0.0,meteohub,2013-02-05 10:57:00,
2013-02-05 06:02:00,43.2,23.2,29.88,SW,223,1.0,9.0,45,0.00,,,0.00,0.0,meteohub,2013-02-05 11:02:00,
2013-02-05 06:07:00,43.0,23.5,29.88,South,175,0.0,9.0,46,0.00,,,0.00,0.0,meteohub,2013-02-05 11:07:00,
2013-02-05 06:12:00,42.6,23.4,29.89,SSW,192,0.0,6.0,46,0.00,,,0.00,0.0,meteohub,2013-02-05 11:12:00,
2013-02-05 06:17:00,42.3,23.5,29.89,SE,129,0.0,8.0,47,0.00,,,0.00,0.0,meteohub,2013-02-05 11:17:00,
2013-02-05 06:22:00,41.7,23.0,29.89,ENE,67,0.0,8.0,47,0.00,,,0.00,0.0,meteohub,2013-02-05 11:22:00,
2013-02-05 06:27:00,41.7,23.0,29.89,South,179,1.0,4.0,47,0.00,,,0.00,0.0,meteohub,2013-02-05 11:27:00,
2013-02-05 06:32:00,41.7,23.0,29.89,SSE,164,0.0,4.0,47,0.00,,,0.00,0.0,meteohub,2013-02-05 11:32:00,
2013-02-05 06:37:00,41.5,23.4,29.89,NE,41,0.0,6.0,48,0.00,,,0.00,0.0,meteohub,2013-02-05 11:37:00,
2013-02-05 06:42:00,41.5,22.8,29.89,NNE,24,2.0,6.0,47,0.00,,,0.00,0.0,meteohub,2013-02-05 11:42:00,
2013-02-05 06:47:00,41.5,23.4,29.89,NNE,19,1.0,6.0,48,0.00,,,0.00,0.0,meteohub,2013-02-05 11:47:00,
2013-02-05 06:52:00,41.5,23.4,29.89,NW,311,0.0,10.0,48,0.00,,,0.00,0.0,meteohub,2013-02-05 11:52:00,
2013-02-05 06:57:00,41.4,23.2,29.89,NNW,334,0.0,10.0,48,0.00,,,0.00,0.0,meteohub,2013-02-05 11:57:00,
2013-02-05 07:02:00,41.5,23.7,29.90,SE,139,1.0,5.0,49,0.00,,,0.00,0.0,meteohub,2013-02-05 12:02:00,
2013-02-05 07:07:00,41.5,23.7,29.89,West,268,2.0,5.0,49,0.00,,,0.00,0.0,meteohub,2013-02-05 12:07:00,
2013-02-05 07:12:00,41.5,24.3,29.90,NE,38,0.0,5.0,50,0.00,,,0.00,0.0,meteohub,2013-02-05 12:12:00,
2013-02-05 07:17:00,41.5,24.8,29.90,NNW,332,3.0,5.0,51,0.00,,,0.00,0.0,meteohub,2013-02-05 12:17:00,
2013-02-05 07:22:00,41.5,25.2,29.90,SSE,150,0.0,4.0,52,0.00,,,0.00,0.0,meteohub,2013-02-05 12:22:00,
2013-02-05 07:27:00,41.5,25.2,29.90,South,179,1.0,4.0,52,0.00,,,0.00,7.0,meteohub,2013-02-05 12:27:00,
2013-02-05 07:32:00,41.7,25.3,29.90,SSE,156,0.0,5.0,52,0.00,,,0.00,12.0,meteohub,2013-02-05 12:32:00,
2013-02-05 07:37:00,42.3,26.4,29.91,NE,34,1.0,7.0,53,0.00,,,0.00,14.0,meteohub,2013-02-05 12:37:00,
2013-02-05 07:42:00,42.6,26.2,29.91,SSE,167,0.0,7.0,52,0.00,,,0.00,18.0,meteohub,2013-02-05 12:42:00,
2013-02-05 07:47:00,43.0,26.1,29.91,West,267,0.0,7.0,51,0.00,,,0.00,14.0,meteohub,2013-02-05 12:47:00,
2013-02-05 07:52:00,43.0,26.6,29.91,West,263,0.0,5.0,52,0.00,,,0.00,30.0,meteohub,2013-02-05 12:52:00,
2013-02-05 07:57:00,43.0,27.0,29.91,SSE,155,0.0,5.0,53,0.00,,,0.00,33.0,meteohub,2013-02-05 12:57:00,
2013-02-05 08:02:00,42.8,27.3,29.91,SSW,210,1.0,6.0,54,0.00,,,0.00,26.0,meteohub,2013-02-05 13:02:00,
2013-02-05 08:07:00,42.8,26.8,29.91,ESE,113,1.0,6.0,53,0.00,,,0.00,33.0,meteohub,2013-02-05 13:07:00,
2013-02-05 08:12:00,42.8,26.8,29.91,WSW,248,1.0,6.0,53,0.00,,,0.00,69.0,meteohub,2013-02-05 13:12:00,
2013-02-05 08:17:00,43.0,27.5,29.91,SE,126,1.0,5.0,54,0.00,,,0.00,51.0,meteohub,2013-02-05 13:17:00,
2013-02-05 08:22:00,43.2,27.1,29.91,SSW,193,3.0,5.0,53,0.00,,,0.00,56.0,meteohub,2013-02-05 13:22:00,
2013-02-05 08:27:00,43.3,27.9,29.91,SE,128,2.0,5.0,54,0.00,,,0.00,47.0,meteohub,2013-02-05 13:27:00,
2013-02-05 08:32:00,43.5,27.5,29.91,South,170,1.0,5.0,53,0.00,,,0.00,58.0,meteohub,2013-02-05 13:32:00,
2013-02-05 08:37:00,43.5,28.0,29.91,SSE,156,1.0,5.0,54,0.00,,,0.00,47.0,meteohub,2013-02-05 13:37:00,
2013-02-05 08:42:00,43.9,28.8,29.92,South,169,5.0,9.0,55,0.00,,,0.00,79.0,meteohub,2013-02-05 13:42:00,
2013-02-05 08:47:00,43.9,28.8,29.92,SSE,147,1.0,10.0,55,0.00,,,0.00,91.0,meteohub,2013-02-05 13:47:00,
2013-02-05 08:52:00,44.1,28.9,29.92,WSW,245,0.0,10.0,55,0.00,,,0.00,121.0,meteohub,2013-02-05 13:52:00,
2013-02-05 08:57:00,44.1,28.9,29.91,NE,45,0.0,10.0,55,0.00,,,0.00,51.0,meteohub,2013-02-05 13:57:00,
2013-02-05 09:02:00,44.2,29.5,29.92,SE,136,4.0,7.0,56,0.00,,,0.00,98.0,meteohub,2013-02-05 14:02:00,
2013-02-05 09:07:00,44.4,29.7,29.92,WSW,239,2.0,17.0,56,0.00,,,0.00,114.0,meteohub,2013-02-05 14:07:00,
2013-02-05 09:12:00,45.1,30.7,29.92,SSW,200,2.0,17.0,57,0.00,,,0.00,244.0,meteohub,2013-02-05 14:12:00,
2013-02-05 09:17:00,46.2,30.9,29.92,SSW,192,1.0,17.0,55,0.00,,,0.00,141.0,meteohub,2013-02-05 14:17:00,
2013-02-05 09:22:00,46.4,30.7,29.92,ESE,113,1.0,15.0,54,0.00,,,0.00,123.0,meteohub,2013-02-05 14:22:00,
2013-02-05 09:27:00,46.6,31.3,29.92,ESE,105,0.0,9.0,55,0.00,,,0.00,243.0,meteohub,2013-02-05 14:27:00,
2013-02-05 09:32:00,47.1,31.3,29.92,West,270,3.0,9.0,54,0.00,,,0.00,120.0,meteohub,2013-02-05 14:32:00,
2013-02-05 09:37:00,46.9,31.1,29.92,SW,219,2.0,7.0,54,0.00,,,0.00,141.0,meteohub,2013-02-05 14:37:00,
2013-02-05 09:42:00,47.1,31.3,29.92,SE,145,2.0,7.0,54,0.00,,,0.00,179.0,meteohub,2013-02-05 14:42:00,
2013-02-05 09:47:00,47.8,32.0,29.92,South,173,8.0,8.0,54,0.00,,,0.00,413.0,meteohub,2013-02-05 14:47:00,
2013-02-05 09:52:00,48.4,32.0,29.92,South,179,6.0,10.0,53,0.00,,,0.00,425.0,meteohub,2013-02-05 14:52:00,
2013-02-05 09:57:00,48.9,33.1,29.92,ESE,119,5.0,10.0,54,0.00,,,0.00,434.0,meteohub,2013-02-05 14:57:00,
2013-02-05 10:02:00,49.5,32.0,29.92,South,184,0.0,10.0,51,0.00,,,0.00,450.0,meteohub,2013-02-05 15:02:00,
2013-02-05 10:07:00,49.8,32.0,29.92,SSW,206,1.0,8.0,50,0.00,,,0.00,464.0,meteohub,2013-02-05 15:07:00,
2013-02-05 10:12:00,50.5,32.0,29.92,NNE,15,1.0,8.0,49,0.00,,,0.00,473.0,meteohub,2013-02-05 15:12:00,
2013-02-05 10:17:00,50.7,31.3,29.92,South,184,1.0,9.0,47,0.00,,,0.00,487.0,meteohub,2013-02-05 15:17:00,
2013-02-05 10:22:00,50.5,31.6,29.92,ESE,105,1.0,9.0,48,0.00,,,0.00,501.0,meteohub,2013-02-05 15:22:00,
2013-02-05 10:27:00,51.1,30.6,29.92,SSW,197,2.0,8.0,45,0.00,,,0.00,513.0,meteohub,2013-02-05 15:27:00,
2013-02-05 10:32:00,51.4,31.8,29.92,SE,138,0.0,8.0,47,0.00,,,0.00,524.0,meteohub,2013-02-05 15:32:00,
2013-02-05 10:37:00,52.2,32.5,29.92,SSW,202,2.0,8.0,47,0.00,,,0.00,536.0,meteohub,2013-02-05 15:37:00,
2013-02-05 10:42:00,52.3,31.6,29.91,SSE,149,0.0,8.0,45,0.00,,,0.00,550.0,meteohub,2013-02-05 15:42:00,
2013-02-05 10:47:00,52.3,32.2,29.91,SSE,153,0.0,8.0,46,0.00,,,0.00,561.0,meteohub,2013-02-05 15:47:00,
2013-02-05 10:52:00,52.5,31.3,29.92,East,91,1.0,8.0,44,0.00,,,0.00,568.0,meteohub,2013-02-05 15:52:00,
2013-02-05 10:57:00,52.5,31.8,29.92,ESE,118,1.0,6.0,45,0.00,,,0.00,582.0,meteohub,2013-02-05 15:57:00,
2013-02-05 11:02:00,52.3,31.6,29.92,SSE,166,0.0,6.0,45,0.00,,,0.00,592.0,meteohub,2013-02-05 16:02:00,
2013-02-05 11:08:00,52.5,32.4,29.91,SSE,158,4.0,9.0,46,0.00,,,0.00,603.0,meteohub,2013-02-05 16:08:00,
2013-02-05 11:14:00,52.9,32.2,29.91,SE,144,1.0,9.0,45,0.00,,,0.00,610.0,meteohub,2013-02-05 16:14:00,
2013-02-05 11:20:00,53.2,33.1,29.91,SSW,202,3.0,7.0,46,0.00,,,0.00,622.0,meteohub,2013-02-05 16:20:00,
2013-02-05 11:26:00,53.4,33.1,29.91,ESE,121,2.0,7.0,46,0.00,,,0.00,635.0,meteohub,2013-02-05 16:26:00,
2013-02-05 11:32:00,54.0,32.5,29.91,ENE,68,0.0,7.0,44,0.00,,,0.00,643.0,meteohub,2013-02-05 16:32:00,
2013-02-05 11:37:00,54.0,33.6,29.91,ESE,122,0.0,7.0,46,0.00,,,0.00,656.0,meteohub,2013-02-05 16:37:00,
2013-02-05 11:42:00,54.1,32.7,29.92,ENE,61,0.0,7.0,44,0.00,,,0.00,708.0,meteohub,2013-02-05 16:42:00,
2013-02-05 11:47:00,54.0,33.1,29.91,SSE,161,2.0,9.0,45,0.00,,,0.00,664.0,meteohub,2013-02-05 16:47:00,
2013-02-05 11:52:00,54.3,34.0,29.91,SE,140,0.0,9.0,46,0.00,,,0.00,691.0,meteohub,2013-02-05 16:52:00,
2013-02-05 11:57:00,54.7,35.4,29.91,South,180,0.0,6.0,48,0.00,,,0.00,693.0,meteohub,2013-02-05 16:57:00,
2013-02-05 12:02:00,55.0,33.4,29.91,SSE,154,0.0,6.0,44,0.00,,,0.00,708.0,meteohub,2013-02-05 17:02:00,
2013-02-05 12:07:00,54.9,34.0,29.91,SSE,152,2.0,12.0,45,0.00,,,0.00,756.0,meteohub,2013-02-05 17:07:00,
2013-02-05 12:12:00,54.9,34.5,29.91,SE,144,8.0,12.0,46,0.00,,,0.00,896.0,meteohub,2013-02-05 17:12:00,
2013-02-05 12:17:00,55.4,34.3,29.91,WNW,302,1.0,12.0,45,0.00,,,0.00,923.0,meteohub,2013-02-05 17:17:00,
2013-02-05 12:22:00,55.8,35.2,29.90,South,169,6.0,10.0,46,0.00,,,0.00,923.0,meteohub,2013-02-05 17:22:00,
2013-02-05 12:27:00,56.1,35.6,29.90,SSE,157,2.0,11.0,46,0.00,,,0.00,761.0,meteohub,2013-02-05 17:27:00,
2013-02-05 12:32:00,56.5,37.6,29.90,ENE,75,3.0,17.0,49,0.00,,,0.00,731.0,meteohub,2013-02-05 17:32:00,
2013-02-05 12:37:00,57.0,37.6,29.90,East,101,1.0,17.0,48,0.00,,,0.00,759.0,meteohub,2013-02-05 17:37:00,
2013-02-05 12:45:00,56.8,36.9,29.89,West,273,2.0,17.0,47,0.00,,,0.00,793.0,meteohub,2013-02-05 17:45:00,
2013-02-05 12:51:00,56.5,38.7,29.89,SSE,156,9.0,17.0,51,0.00,,,0.00,731.0,meteohub,2013-02-05 17:51:00,
2013-02-05 12:57:00,56.7,39.2,29.89,SSE,162,5.0,17.0,52,0.00,,,0.00,724.0,meteohub,2013-02-05 17:57:00,
2013-02-05 13:02:00,57.0,39.6,29.89,ENE,70,3.0,12.0,52,0.00,,,0.00,721.0,meteohub,2013-02-05 18:02:00,
2013-02-05 13:07:00,56.8,38.8,29.88,North,5,3.0,11.0,51,0.00,,,0.00,721.0,meteohub,2013-02-05 18:07:00,
2013-02-05 13:12:00,56.3,39.4,29.89,NW,325,3.0,15.0,53,0.00,,,0.00,714.0,meteohub,2013-02-05 18:12:00,
2013-02-05 13:17:00,56.5,39.0,29.88,WSW,238,1.0,15.0,52,0.00,,,0.00,687.0,meteohub,2013-02-05 18:17:00,
2013-02-05 13:22:00,55.9,38.1,29.88,SSW,207,0.0,15.0,51,0.00,,,0.00,452.0,meteohub,2013-02-05 18:22:00,
2013-02-05 13:27:00,55.9,38.1,29.88,ENE,71,0.0,27.0,51,0.00,,,0.00,563.0,meteohub,2013-02-05 18:27:00,
2013-02-05 13:32:00,56.1,36.7,29.88,South,173,4.0,27.0,48,0.00,,,0.00,473.0,meteohub,2013-02-05 18:32:00,
2013-02-05 13:37:00,55.8,35.8,29.88,WNW,288,3.0,19.0,47,0.00,,,0.00,642.0,meteohub,2013-02-05 18:37:00,
2013-02-05 13:42:00,55.8,35.2,29.88,South,190,6.0,25.0,46,0.00,,,0.00,476.0,meteohub,2013-02-05 18:42:00,
2013-02-05 13:47:00,55.8,36.3,29.86,SSE,162,6.0,25.0,48,0.00,,,0.00,332.0,meteohub,2013-02-05 18:47:00,
2013-02-05 13:52:00,55.8,35.2,29.86,North,355,1.0,23.0,46,0.00,,,0.00,420.0,meteohub,2013-02-05 18:52:00,
2013-02-05 13:57:00,56.8,34.5,29.86,SW,214,3.0,23.0,43,0.00,,,0.00,490.0,meteohub,2013-02-05 18:57:00,
2013-02-05 14:03:00,56.8,34.5,29.86,NNW,342,1.0,13.0,43,0.00,,,0.00,480.0,meteohub,2013-02-05 19:03:00,
2013-02-05 14:09:00,57.4,33.8,29.86,South,182,1.0,16.0,41,0.00,,,0.00,536.0,meteohub,2013-02-05 19:09:00,
2013-02-05 14:15:00,57.4,33.3,29.86,SE,128,0.0,16.0,40,0.00,,,0.00,652.0,meteohub,2013-02-05 19:15:00,
2013-02-05 14:21:00,57.0,30.9,29.86,SSW,211,3.0,18.0,37,0.00,,,0.00,582.0,meteohub,2013-02-05 19:21:00,
2013-02-05 14:27:00,57.2,31.8,29.86,NNE,17,0.0,18.0,38,0.00,,,0.00,589.0,meteohub,2013-02-05 19:27:00,
2013-02-05 14:32:00,58.3,30.7,29.86,SE,132,7.0,18.0,35,0.00,,,0.00,339.0,meteohub,2013-02-05 19:32:00,
2013-02-05 14:37:00,57.9,28.2,29.85,South,175,4.0,13.0,32,0.00,,,0.00,248.0,meteohub,2013-02-05 19:37:00,
2013-02-05 14:42:00,57.7,28.0,29.85,NNW,334,5.0,13.0,32,0.00,,,0.00,206.0,meteohub,2013-02-05 19:42:00,
2013-02-05 14:47:00,57.2,26.8,29.86,SSW,213,1.0,16.0,31,0.00,,,0.00,81.0,meteohub,2013-02-05 19:47:00,
2013-02-05 14:52:00,57.2,26.8,29.86,WSW,242,2.0,16.0,31,0.00,,,0.00,357.0,meteohub,2013-02-05 19:52:00,
2013-02-05 14:57:00,56.8,28.0,29.86,East,94,1.0,16.0,33,0.00,,,0.00,424.0,meteohub,2013-02-05 19:57:00,
2013-02-05 15:02:00,57.0,28.2,29.86,NNE,19,3.0,15.0,33,0.00,,,0.00,373.0,meteohub,2013-02-05 20:02:00,
2013-02-05 15:07:00,57.0,28.2,29.86,South,172,2.0,14.0,33,0.00,,,0.00,394.0,meteohub,2013-02-05 20:07:00,
2013-02-05 15:12:00,57.0,28.2,29.86,SSE,153,5.0,11.0,33,0.00,,,0.00,348.0,meteohub,2013-02-05 20:12:00,
2013-02-05 15:17:00,56.8,28.0,29.86,East,92,8.0,16.0,33,0.00,,,0.00,158.0,meteohub,2013-02-05 20:17:00,
2013-02-05 15:22:00,56.8,28.8,29.86,ESE,118,2.0,16.0,34,0.00,,,0.00,195.0,meteohub,2013-02-05 20:22:00,
2013-02-05 15:27:00,56.8,28.8,29.86,South,173,2.0,15.0,34,0.00,,,0.00,169.0,meteohub,2013-02-05 20:27:00,
2013-02-05 15:32:00,57.0,28.9,29.86,SSE,154,0.0,12.0,34,0.00,,,0.00,232.0,meteohub,2013-02-05 20:32:00,
2013-02-05 15:37:00,57.2,29.1,29.86,SE,133,4.0,12.0,34,0.00,,,0.00,322.0,meteohub,2013-02-05 20:37:00,
2013-02-05 15:42:00,57.4,30.0,29.86,North,0,0.0,11.0,35,0.00,,,0.00,248.0,meteohub,2013-02-05 20:42:00,
2013-02-05 15:47:00,57.4,37.4,29.86,SE,140,6.0,11.0,47,0.00,,,0.00,323.0,meteohub,2013-02-05 20:47:00,
2013-02-05 15:52:00,57.0,38.5,29.86,SSW,209,2.0,13.0,50,0.00,,,0.00,269.0,meteohub,2013-02-05 20:52:00,
2013-02-05 15:57:00,56.7,36.7,29.86,SE,134,0.0,14.0,47,0.00,,,0.00,100.0,meteohub,2013-02-05 20:57:00,
2013-02-05 16:02:00,56.3,38.5,29.86,SSE,162,2.0,14.0,51,0.00,,,0.00,109.0,meteohub,2013-02-05 21:02:00,
2013-02-05 16:07:00,55.9,38.1,29.86,SSE,152,1.0,14.0,51,0.00,,,0.00,37.0,meteohub,2013-02-05 21:07:00,
2013-02-05 16:12:00,56.1,38.3,29.86,SSE,148,0.0,10.0,51,0.00,,,0.00,76.0,meteohub,2013-02-05 21:12:00,
2013-02-05 16:17:00,56.1,39.2,29.86,ESE,123,0.0,10.0,53,0.00,,,0.00,192.0,meteohub,2013-02-05 21:17:00,
2013-02-05 16:22:00,56.1,39.2,29.86,SE,132,1.0,10.0,53,0.00,,,0.00,121.0,meteohub,2013-02-05 21:22:00,
2013-02-05 16:27:00,55.6,38.7,29.86,South,184,3.0,9.0,53,0.00,,,0.00,105.0,meteohub,2013-02-05 21:27:00,
2013-02-05 16:32:00,55.4,39.0,29.86,South,178,4.0,9.0,54,0.00,,,0.00,67.0,meteohub,2013-02-05 21:32:00,
2013-02-05 16:37:00,55.0,38.3,29.86,South,182,1.0,9.0,53,0.00,,,0.00,44.0,meteohub,2013-02-05 21:37:00,
2013-02-05 16:42:00,54.9,37.6,29.86,SSW,193,0.0,9.0,52,0.00,,,0.00,104.0,meteohub,2013-02-05 21:42:00,
2013-02-05 16:49:00,54.7,37.9,29.86,SSE,159,0.0,9.0,53,0.00,,,0.00,25.0,meteohub,2013-02-05 21:49:00,
2013-02-05 16:55:00,54.1,36.9,29.87,South,169,0.0,8.0,52,0.00,,,0.00,26.0,meteohub,2013-02-05 21:55:00,
2013-02-05 17:01:00,53.6,36.9,29.87,SSE,160,1.0,8.0,53,0.00,,,0.00,25.0,meteohub,2013-02-05 22:01:00,
2013-02-05 17:07:00,53.1,36.9,29.87,South,180,0.0,5.0,54,0.00,,,0.00,28.0,meteohub,2013-02-05 22:07:00,
2013-02-05 17:12:00,52.7,36.5,29.87,South,180,0.0,5.0,54,0.00,,,0.00,37.0,meteohub,2013-02-05 22:12:00,
2013-02-05 17:17:00,52.3,36.1,29.87,South,186,0.0,5.0,54,0.00,,,0.00,40.0,meteohub,2013-02-05 22:17:00,
2013-02-05 17:22:00,52.2,36.0,29.87,South,186,0.0,2.0,54,0.00,,,0.00,39.0,meteohub,2013-02-05 22:22:00,
2013-02-05 17:27:00,52.0,35.8,29.87,South,186,0.0,2.0,54,0.00,,,0.00,33.0,meteohub,2013-02-05 22:27:00,
2013-02-05 17:32:00,51.8,35.6,29.87,ESE,109,0.0,4.0,54,0.00,,,0.00,28.0,meteohub,2013-02-05 22:32:00,
2013-02-05 17:37:00,51.6,36.0,29.87,ESE,109,0.0,4.0,55,0.00,,,0.00,21.0,meteohub,2013-02-05 22:37:00,
2013-02-05 17:42:00,51.3,35.6,29.88,ESE,109,0.0,4.0,55,0.00,,,0.00,18.0,meteohub,2013-02-05 22:42:00,
2013-02-05 17:47:00,50.7,35.1,29.88,ESE,109,0.0,1.0,55,0.00,,,0.00,14.0,meteohub,2013-02-05 22:47:00,
2013-02-05 17:52:00,50.4,35.8,29.88,ESE,109,0.0,1.0,57,0.00,,,0.00,9.0,meteohub,2013-02-05 22:52:00,
2013-02-05 17:57:00,50.2,35.1,29.88,ESE,109,0.0,1.0,56,0.00,,,0.00,7.0,meteohub,2013-02-05 22:57:00,
2013-02-05 18:02:00,49.8,35.2,29.88,ESE,109,0.0,1.0,57,0.00,,,0.00,0.0,meteohub,2013-02-05 23:02:00,
2013-02-05 18:07:00,49.5,34.9,29.88,ESE,109,0.0,1.0,57,0.00,,,0.00,0.0,meteohub,2013-02-05 23:07:00,
2013-02-05 18:12:00,48.9,34.3,29.88,ESE,109,0.0,1.0,57,0.00,,,0.00,0.0,meteohub,2013-02-05 23:12:00,
2013-02-05 18:17:00,48.6,34.0,29.88,ESE,109,0.0,1.0,57,0.00,,,0.00,0.0,meteohub,2013-02-05 23:17:00,
2013-02-05 18:23:00,48.2,33.6,29.88,ESE,109,0.0,1.0,57,0.00,,,0.00,0.0,meteohub,2013-02-05 23:23:00,
2013-02-05 18:29:00,47.7,33.6,29.88,SE,129,0.0,1.0,58,0.00,,,0.00,0.0,meteohub,2013-02-05 23:29:00,
2013-02-05 18:35:00,47.3,33.3,29.88,East,93,0.0,1.0,58,0.00,,,0.00,0.0,meteohub,2013-02-05 23:35:00,
2013-02-05 18:41:00,46.9,32.9,29.88,SSW,211,1.0,5.0,58,0.00,,,0.00,0.0,meteohub,2013-02-05 23:41:00,
2013-02-05 18:47:00,47.1,32.7,29.89,SE,136,0.0,5.0,57,0.00,,,0.00,0.0,meteohub,2013-02-05 23:47:00,
2013-02-05 18:52:00,47.1,32.2,29.89,West,266,2.0,6.0,56,0.00,,,0.00,0.0,meteohub,2013-02-05 23:52:00,
2013-02-05 18:57:00,47.1,32.2,29.89,West,266,0.0,6.0,56,0.00,,,0.00,0.0,meteohub,2013-02-05 23:57:00,
2013-02-05 19:02:00,47.1,31.8,29.89,NNW,335,0.0,6.0,55,0.00,,,0.00,0.0,meteohub,2013-02-06 00:02:00,
2013-02-05 19:07:00,47.3,31.5,29.90,North,355,0.0,2.0,54,0.00,,,0.00,0.0,meteohub,2013-02-06 00:07:00,
2013-02-05 19:12:00,47.1,31.3,29.90,North,355,1.0,2.0,54,0.00,,,0.00,0.0,meteohub,2013-02-06 00:12:00,
2013-02-05 19:17:00,46.9,31.1,29.90,West,266,0.0,2.0,54,0.00,,,0.00,0.0,meteohub,2013-02-06 00:17:00,
2013-02-05 19:22:00,46.8,30.9,29.90,NW,322,0.0,2.0,54,0.00,,,0.00,0.0,meteohub,2013-02-06 00:22:00,
2013-02-05 19:27:00,46.9,31.1,29.90,SW,225,0.0,2.0,54,0.00,,,0.00,0.0,meteohub,2013-02-06 00:27:00,
2013-02-05 19:32:00,46.9,30.7,29.90,NNE,15,0.0,5.0,53,0.00,,,0.00,0.0,meteohub,2013-02-06 00:32:00,
2013-02-05 19:37:00,46.9,31.1,29.91,SSE,159,1.0,5.0,54,0.00,,,0.00,0.0,meteohub,2013-02-06 00:37:00,
2013-02-05 19:42:00,46.8,30.9,29.90,WNW,300,0.0,4.0,54,0.00,,,0.00,0.0,meteohub,2013-02-06 00:42:00,
2013-02-05 19:47:00,46.9,31.1,29.90,West,261,0.0,4.0,54,0.00,,,0.00,0.0,meteohub,2013-02-06 00:47:00,
2013-02-05 19:52:00,46.8,30.9,29.91,West,275,0.0,4.0,54,0.00,,,0.00,0.0,meteohub,2013-02-06 00:52:00,
2013-02-05 19:57:00,46.6,31.3,29.91,NNE,32,0.0,2.0,55,0.00,,,0.00,0.0,meteohub,2013-02-06 00:57:00,
2013-02-05 20:03:00,46.4,30.7,29.91,NNE,30,0.0,2.0,54,0.00,,,0.00,0.0,meteohub,2013-02-06 01:03:00,
2013-02-05 20:09:00,46.0,30.7,29.91,ENE,57,0.0,2.0,55,0.00,,,0.00,0.0,meteohub,2013-02-06 01:09:00,
2013-02-05 20:15:00,45.9,32.7,29.91,ENE,72,0.0,4.0,60,0.00,,,0.00,0.0,meteohub,2013-02-06 01:15:00,
2013-02-05 20:21:00,46.0,33.3,29.92,South,179,1.0,3.0,61,0.00,,,0.00,0.0,meteohub,2013-02-06 01:21:00,
2013-02-05 20:27:00,45.9,33.6,29.91,South,183,0.0,2.0,62,0.00,,,0.00,0.0,meteohub,2013-02-06 01:27:00,
2013-02-05 20:32:00,45.7,34.2,29.92,South,188,0.0,2.0,64,0.00,,,0.00,0.0,meteohub,2013-02-06 01:32:00,
2013-02-05 20:39:00,45.3,35.4,29.92,SE,131,0.0,2.0,68,0.00,,,0.00,0.0,meteohub,2013-02-06 01:39:00,
2013-02-05 20:45:00,45.1,35.2,29.92,SE,131,0.0,2.0,68,0.00,,,0.00,0.0,meteohub,2013-02-06 01:45:00,
2013-02-05 20:51:00,44.8,34.9,29.92,SE,131,1.0,2.0,68,0.00,,,0.00,0.0,meteohub,2013-02-06 01:51:00,
2013-02-05 20:57:00,44.6,33.6,29.92,WSW,258,1.0,2.0,65,0.00,,,0.00,0.0,meteohub,2013-02-06 01:57:00,
2013-02-05 21:02:00,45.0,33.4,29.92,North,350,0.0,2.0,64,0.00,,,0.00,0.0,meteohub,2013-02-06 02:02:00,
2013-02-05 21:07:00,45.0,33.1,29.92,North,355,0.0,3.0,63,0.00,,,0.00,0.0,meteohub,2013-02-06 02:07:00,
2013-02-05 21:12:00,45.0,33.1,29.92,North,355,1.0,3.0,63,0.00,,,0.00,0.0,meteohub,2013-02-06 02:12:00,
2013-02-05 21:17:00,44.6,32.7,29.92,WNW,302,2.0,2.0,63,0.00,,,0.00,0.0,meteohub,2013-02-06 02:17:00,
2013-02-05 21:22:00,45.1,32.9,29.92,NNE,21,0.0,4.0,62,0.00,,,0.00,0.0,meteohub,2013-02-06 02:22:00,
2013-02-05 21:27:00,45.5,32.4,29.92,West,269,0.0,5.0,60,0.00,,,0.00,0.0,meteohub,2013-02-06 02:27:00,
2013-02-05 21:32:00,45.9,32.0,29.92,East,101,0.0,5.0,58,0.00,,,0.00,0.0,meteohub,2013-02-06 02:32:00,
2013-02-05 21:37:00,45.9,32.0,29.93,East,86,0.0,6.0,58,0.00,,,0.00,0.0,meteohub,2013-02-06 02:37:00,
2013-02-05 21:42:00,45.9,32.0,29.93,NE,46,0.0,6.0,58,0.00,,,0.00,0.0,meteohub,2013-02-06 02:42:00,
2013-02-05 21:47:00,45.9,32.0,29.93,East,98,0.0,4.0,58,0.00,,,0.00,0.0,meteohub,2013-02-06 02:47:00,
2013-02-05 21:52:00,45.9,32.0,29.93,North,355,0.0,9.0,58,0.00,,,0.00,0.0,meteohub,2013-02-06 02:52:00,
2013-02-05 21:57:00,45.7,31.8,29.93,North,355,0.0,9.0,58,0.00,,,0.00,0.0,meteohub,2013-02-06 02:57:00,
2013-02-05 22:02:00,45.5,31.6,29.93,NNW,346,0.0,2.0,58,0.00,,,0.00,0.0,meteohub,2013-02-06 03:02:00,
2013-02-05 22:07:00,45.3,31.5,29.94,WNW,300,1.0,3.0,58,0.00,,,0.00,0.0,meteohub,2013-02-06 03:07:00,
2013-02-05 22:12:00,45.1,31.3,29.94,ENE,65,0.0,4.0,58,0.00,,,0.00,0.0,meteohub,2013-02-06 03:12:00,
2013-02-05 22:17:00,45.3,31.8,29.94,East,89,0.0,4.0,59,0.00,,,0.00,0.0,meteohub,2013-02-06 03:17:00,
2013-02-05 22:22:00,45.3,31.5,29.94,NNW,339,0.0,4.0,58,0.00,,,0.00,0.0,meteohub,2013-02-06 03:22:00,
2013-02-05 22:27:00,45.1,31.6,29.94,NNW,344,1.0,3.0,59,0.00,,,0.00,0.0,meteohub,2013-02-06 03:27:00,
2013-02-05 22:32:00,45.1,31.3,29.94,NNE,23,3.0,3.0,58,0.00,,,0.00,0.0,meteohub,2013-02-06 03:32:00,
2013-02-05 22:37:00,45.5,31.6,29.94,NNW,327,0.0,3.0,58,0.00,,,0.00,0.0,meteohub,2013-02-06 03:37:00,
2013-02-05 22:42:00,45.5,31.6,29.94,NW,323,0.0,6.0,58,0.00,,,0.00,0.0,meteohub,2013-02-06 03:42:00,
2013-02-05 22:47:00,45.5,31.1,29.94,NNW,327,0.0,6.0,57,0.00,,,0.00,0.0,meteohub,2013-02-06 03:47:00,
2013-02-05 22:52:00,45.5,31.1,29.94,SW,217,0.0,3.0,57,0.00,,,0.00,0.0,meteohub,2013-02-06 03:52:00,
2013-02-05 22:57:00,45.5,31.1,29.94,West,262,1.0,3.0,57,0.00,,,0.00,0.0,meteohub,2013-02-06 03:57:00,
2013-02-05 23:02:00,45.3,30.9,29.93,West,262,0.0,3.0,57,0.00,,,0.00,0.0,meteohub,2013-02-06 04:02:00,
2013-02-05 23:07:00,45.5,31.6,29.93,SW,218,1.0,3.0,58,0.00,,,0.00,0.0,meteohub,2013-02-06 04:07:00,
2013-02-05 23:12:00,45.3,31.5,29.93,North,0,3.0,4.0,58,0.00,,,0.00,0.0,meteohub,2013-02-06 04:12:00,
2013-02-05 23:17:00,45.3,31.5,29.93,North,355,0.0,4.0,58,0.00,,,0.00,0.0,meteohub,2013-02-06 04:17:00,
2013-02-05 23:22:00,45.1,31.3,29.93,North,355,0.0,3.0,58,0.00,,,0.00,0.0,meteohub,2013-02-06 04:22:00,
2013-02-05 23:28:00,45.0,31.1,29.93,North,355,0.0,3.0,58,0.00,,,0.00,0.0,meteohub,2013-02-06 04:28:00,
2013-02-05 23:34:00,44.8,31.3,29.93,West,265,1.0,2.0,59,0.00,,,0.00,0.0,meteohub,2013-02-06 04:34:00,
2013-02-05 23:40:00,44.8,31.3,29.93,West,273,1.0,3.0,59,0.00,,,0.00,0.0,meteohub,2013-02-06 04:40:00,
2013-02-05 23:46:00,44.8,31.3,29.93,West,273,0.0,2.0,59,0.00,,,0.00,0.0,meteohub,2013-02-06 04:46:00,
2013-02-05 23:52:00,44.4,30.9,29.94,West,273,0.0,2.0,59,0.00,,,0.00,0.0,meteohub,2013-02-06 04:52:00,
2013-02-05 23:57:00,44.4,31.5,29.94,North,5,2.0,2.0,60,0.00,,,0.00,0.0,meteohub,2013-02-06 04:57:00,